This demonstration page uses our WeatherBlox Daily Observations layout. Learn more.

Left ArrowRight Arrow

Hourly Observations for October 5, 2015

Temp ( °F °C ) Dew Point ( °F °C ) Humidity (%) Winds ( mph kmh ) Pressure ( in mb ) Visibility ( mi km ) Precip ( " mm )
12:53 am 00:53 Cloudy 66 18.9 61 16.1 84 84 NNE 8 13 29.86 1011 10 16 0.00 0.00
1:53 am 01:53 Cloudy 67 19.4 60 15.6 79 79 NE 12 19 29.86 1011 10 16 0.00 0.00
2:53 am 02:53 Cloudy 66 18.9 60 15.6 81 81 NE 12 19 29.87 1012 10 16 0.00 0.00
3:53 am 03:53 Cloudy 67 19.4 59 15 76 76 NE 10 17 29.87 1011 10 16 0.00 0.00
4:22 am 04:22 Cloudy 66 19 59 15 78 78 NE 12 19 29.88 1012 10 16 0.00 0.00
4:53 am 04:53 Cloudy 66 18.9 58 14.4 75 75 NE 12 19 29.87 1012 10 16 0.00 0.00
5:53 am 05:53 Cloudy 66 18.9 58 14.4 75 75 NNE 10 17 29.89 1012 10 16 0.00 0.00
6:30 am 06:30 Mostly Cloudy 66 19 57 14 73 73 NE 9 15 29.91 1013 10 16 0.00 0.00
6:53 am 06:53 Cloudy 66 18.9 59 15 78 78 NE 7 11 29.88 1012 10 16 0.00 0.00
7:53 am 07:53 Cloudy 66 18.9 59 15 78 78 NE 8 13 29.89 1012 10 16 0.00 0.00
8:42 am 08:42 Cloudy 66 19 59 15 78 78 ENE 13 20 29.94 1014 10 16 0.00 0.00
8:53 am 08:53 Cloudy 67 19.4 59 15 76 76 ENE 16 26 29.92 1013 10 16 0.00 0.00
9:09 am 09:09 Cloudy 67 19.4 59 15 76 76 NE 10 17 29.94 1014 10 16 0.00 0.00
9:32 am 09:32 Cloudy 66 19 59 15 78 78 NE 10 17 29.94 1014 10 16 0.00 0.00
9:53 am 09:53 Cloudy 67 19.4 60 15.6 79 79 NE 7 11 29.94 1014 10 16 0.00 0.00
10:53 am 10:53 Cloudy 69 20.6 61 16.1 76 76 NNE 6 9 29.95 1014 10 16 0.00 0.00
11:53 am 11:53 Cloudy 73 22.8 61 16.1 66 66 ENE 13 20 29.94 1014 10 16 0.00 0.00
12:53 pm 12:53 Cloudy 73 22.8 62 16.7 69 69 NE 9 15 29.94 1014 10 16 0.00 0.00
1:53 pm 13:53 Cloudy 74 23.3 63 17.2 69 69 NE 9 15 29.93 1014 10 16 0.00 0.00
2:53 pm 14:53 Cloudy 75 23.9 63 17.2 66 66 VRB 5 7 29.92 1013 10 16 0.00 0.00
3:53 pm 15:53 Cloudy 73 22.8 63 17.2 71 71 NE 8 13 29.91 1013 10 16 0.00 0.00
4:53 pm 16:53 Cloudy with Light Rain 70 21.1 65 18.3 84 84 E 9 15 29.93 1014 7 11 0.00 0.03
5:53 pm 17:53 Cloudy 70 21.1 64 17.8 82 82 Calm 29.94 1014 10 16 0.00 0.03
6:53 pm 18:53 Cloudy 70 21.1 65 18.3 84 84 Calm 29.95 1014 10 16 0.00 0.00
7:53 pm 19:53 Cloudy 70 21.1 65 18.3 84 84 Calm 29.96 1014 10 16 0.00 0.00
8:53 pm 20:53 Mostly Cloudy 66 18.9 64 17.8 93 93 N 3 6 29.97 1015 10 16 0.00 0.00
9:53 pm 21:53 Clear 65 18.3 63 17.2 93 93 Calm 29.99 1016 10 16 0.00 0.00
10:53 pm 22:53 Clear 65 18.3 62 16.7 90 90 Calm 29.99 1016 10 16 0.00 0.00
11:53 pm 23:53 Clear 66 18.9 61 16.1 84 84 NE 5 7 30.00 1016 10 16 0.00 0.00

Powered by AerisWeather